Philadelphia, PA

4:43 PM EST on December 12, 2019 (GMT -0500)
Philadelphia International

Weather History for KPHL - June, 2019

Change the Weather History Date:

Monday, June 10, 2019

  Actual Average Record
Temperature  
Mean Temperature 71 °F 72 °F  
Max Temperature 80 °F 81 °F 98 °F (2008)
Min Temperature 62 °F 62 °F 47 °F (1988)
Degree Days  
Heating Degree Days 0 0  
Month to date heating degree days 1 9  
Since 1 June heating degree days 1 9  
Since 1 July heating degree days 4360 4611  
Cooling Degree Days 6 7  
Month to date cooling degree days 73 62  
Year to date cooling degree days 223 153  
Since 1 June cooling degree days 73 62  
Growing Degree Days 21 (Base 50)    
Moisture  
Dew Point 66 °F    
Average Humidity 82    
Maximum Humidity 97    
Minimum Humidity 67    
Precipitation  
Precipitation 0.20 in 0.12 in 2.59 in (2014)
Month to date precipitation 1.26 1.22  
Year to date precipitation 20.54 17.96  
Snow  
Snow 0.00 in 0.00 in 0.00 in ()
Month to date snowfall 0.0 0.0  
Since 1 June snowfall 0.0 0.0  
Since 1 July snowfall 17.1 22.4  
Snow Depth 0.00 in    
Sea Level Pressure  
Sea Level Pressure 30.00 in    
Wind  
Wind Speed 8 mph (East)    
Max Wind Speed 16 mph    
Max Gust Speed 24 mph    
Visibility 7 miles    
Events Rain    
T = Trace of Precipitation, MM = Missing Value Source: NWS Daily Summary

Daily Weather History Graph

Daily Weather History Graph

Search for Another Location

Airport or City:

Astronomy

Jun. 10, 2019 Rise Set
Actual Time 5:32 AM EDT 8:28 PM EDT
Civil Twilight 4:59 AM EDT 9:01 PM EDT
Nautical Twilight 4:18 AM EDT 9:42 PM EDT
Astronomical Twilight 3:30 AM EDT 10:30 PM EDT
Moon 1:17 PM EDT (6/10) 1:41 AM EDT (6/10)
Length of Visible Light 16h 01m
Length of Day
14h 56m
First Quarter, 55% of the Moon is Illuminated
Jun 10
First Quarter
Jun 17
Full
Jun 25
Last Quarter
Jul 2
New
Jul 9
First Quarter

Hourly Weather History & Observations

Time (EDT) Temp. Heat Index Dew Point Humidity Pressure Visibility Wind Dir Wind Speed Gust Speed Precip Events Conditions
12:38 AM 64.0 °F - 53.1 °F 67% 30.17 in 10.0 mi ENE 12.7 mph - N/A   Overcast
12:54 AM 64.0 °F - 54.0 °F 70% 30.17 in 10.0 mi ENE 11.5 mph - N/A   Overcast
1:54 AM 64.0 °F - 54.0 °F 70% 30.15 in 10.0 mi ENE 11.5 mph - N/A   Overcast
2:14 AM 64.0 °F - 55.0 °F 73% 30.14 in 10.0 mi ENE 12.7 mph 20.7 mph N/A   Overcast
2:39 AM 64.0 °F - 55.0 °F 73% 30.13 in 8.0 mi ENE 10.4 mph - 0.00 in Rain Light Rain
2:54 AM 62.1 °F - 55.9 °F 80% 30.12 in 8.0 mi ENE 10.4 mph - 0.00 in Rain Light Rain
3:05 AM 62.1 °F - 57.0 °F 84% 30.12 in 6.0 mi ENE 10.4 mph - 0.00 in Rain Light Rain
3:43 AM 62.1 °F - 57.0 °F 84% 30.11 in 6.0 mi ENE 13.8 mph - 0.00 in Rain Light Rain
3:54 AM 62.1 °F - 57.0 °F 84% 30.11 in 5.0 mi ENE 9.2 mph - 0.00 in Rain Light Rain
4:05 AM 62.1 °F - 57.9 °F 86% 30.11 in 7.0 mi ENE 9.2 mph - 0.00 in   Overcast
4:40 AM 62.1 °F - 59.0 °F 90% 30.09 in 8.0 mi ENE 10.4 mph - 0.00 in   Overcast
4:54 AM 62.1 °F - 59.0 °F 90% 30.09 in 7.0 mi NE 12.7 mph - 0.00 in Rain Light Rain
5:15 AM 62.1 °F - 60.1 °F 93% 30.09 in 6.0 mi ENE 9.2 mph - 0.00 in Rain Light Rain
5:27 AM 62.1 °F - 60.1 °F 93% 30.09 in 3.0 mi ENE 10.4 mph 19.6 mph 0.00 in Rain Light Rain
5:49 AM 62.6 °F - 60.8 °F 94% 30.09 in 4.0 mi ENE 10.4 mph - 0.00 in Rain Light Rain
5:54 AM 62.1 °F - 60.1 °F 93% 30.09 in 3.0 mi ENE 10.4 mph - 0.00 in Rain Light Rain
6:10 AM 62.1 °F - 60.1 °F 93% 30.09 in 5.0 mi ENE 9.2 mph - 0.01 in Rain Light Rain
6:31 AM 63.0 °F - 61.0 °F 93% 30.08 in 4.0 mi ENE 11.5 mph 18.4 mph 0.01 in Rain Light Rain
6:54 AM 63.0 °F - 61.0 °F 93% 30.08 in 3.0 mi ENE 10.4 mph - 0.03 in Rain Rain
7:22 AM 64.0 °F - 62.1 °F 93% 30.07 in 5.0 mi ENE 9.2 mph - 0.04 in Rain Light Rain
7:54 AM 64.9 °F - 63.0 °F 93% 30.07 in 7.0 mi ENE 8.1 mph - 0.05 in   Overcast
8:14 AM 64.9 °F - 63.0 °F 93% 30.07 in 3.0 mi ENE 9.2 mph - 0.00 in Rain Light Rain
8:20 AM 64.9 °F - 63.0 °F 93% 30.07 in 2.0 mi ENE 9.2 mph - 0.00 in Rain Light Rain
8:38 AM 64.9 °F - 64.0 °F 97% 30.06 in 3.0 mi NE 9.2 mph - 0.00 in Rain Light Rain
8:54 AM 66.0 °F - 64.0 °F 93% 30.06 in 4.0 mi ENE 11.5 mph - 0.00 in Rain Light Rain
9:54 AM 68.0 °F - 66.0 °F 93% 30.03 in 3.0 mi ENE 11.5 mph - 0.01 in   Overcast
10:43 AM 70.0 °F - 66.9 °F 90% 30.02 in 2.5 mi ENE 9.2 mph - N/A   Overcast
10:54 AM 70.0 °F - 68.0 °F 93% 30.02 in 2.0 mi ENE 8.1 mph - N/A   Overcast
11:20 AM 70.0 °F - 68.0 °F 93% 30.01 in 2.5 mi ENE 8.1 mph - N/A   Overcast
11:36 AM 71.1 °F - 69.1 °F 93% 30.01 in 2.5 mi ENE 8.1 mph - N/A   Overcast
11:54 AM 71.1 °F - 69.1 °F 93% 30.00 in 2.5 mi ENE 8.1 mph - N/A   Overcast
12:09 PM 72.0 °F - 70.0 °F 93% 30.00 in 3.0 mi East 9.2 mph - N/A   Overcast
12:27 PM 72.0 °F - 70.0 °F 93% 30.00 in 6.0 mi ENE 8.1 mph - N/A   Overcast
12:42 PM 73.0 °F - 70.0 °F 90% 29.99 in 9.0 mi ENE 6.9 mph - N/A   Overcast
12:54 PM 73.0 °F - 70.0 °F 90% 29.99 in 9.0 mi ENE 6.9 mph - N/A   Overcast
1:23 PM 73.9 °F - 70.0 °F 87% 29.98 in 10.0 mi ENE 6.9 mph - N/A   Overcast
1:54 PM 75.9 °F - 71.1 °F 85% 29.96 in 10.0 mi NE 8.1 mph - N/A   Overcast
2:02 PM 77.0 °F - 71.1 °F 82% 29.96 in 10.0 mi NE 8.1 mph - N/A   Overcast
2:19 PM 77.0 °F - 72.0 °F 84% 29.95 in 10.0 mi ENE 5.8 mph - N/A   Overcast
2:34 PM 77.0 °F - 71.1 °F 82% 29.94 in 10.0 mi NE 6.9 mph - N/A   Overcast
2:54 PM 75.9 °F - 71.1 °F 85% 29.94 in 10.0 mi NE 6.9 mph - N/A   Overcast
3:18 PM 78.1 °F - 72.0 °F 81% 29.93 in 10.0 mi ENE 5.8 mph - 0.00 in Rain Light Rain
3:42 PM 79.0 °F - 72.0 °F 79% 29.92 in 10.0 mi ENE 5.8 mph - 0.00 in   Overcast
3:54 PM 80.1 °F 83.8 °F 72.0 °F 76% 29.91 in 10.0 mi ENE 5.8 mph - 0.00 in   Overcast
4:54 PM 77.0 °F - 72.0 °F 84% 29.90 in 10.0 mi East 3.5 mph - N/A   Overcast
5:49 PM 77.0 °F - 71.6 °F 83% 29.89 in 5.0 mi SSE 10.4 mph 17.3 mph 0.01 in Rain Light Rain
5:54 PM 75.9 °F - 72.0 °F 87% 29.88 in 5.0 mi SSE 9.2 mph - 0.01 in Rain Rain
6:12 PM 75.9 °F - 72.0 °F 87% 29.88 in 7.0 mi SSE 6.9 mph - 0.04 in Rain Light Rain
6:34 PM 75.9 °F - 72.0 °F 87% 29.88 in 10.0 mi SSE 6.9 mph - 0.05 in Rain Light Rain
6:54 PM 75.9 °F - 72.0 °F 87% 29.87 in 10.0 mi SSE 6.9 mph - 0.05 in   Overcast
7:34 PM 75.9 °F - 72.0 °F 87% 29.87 in 10.0 mi SSE 5.8 mph - 0.00 in Rain Light Rain
7:54 PM 75.9 °F - 72.0 °F 87% 29.87 in 5.0 mi South 9.2 mph - 0.00 in Rain Light Rain
8:18 PM 75.0 °F - 73.0 °F 94% 29.87 in 5.0 mi South 10.4 mph - 0.03 in Rain Light Rain
8:38 PM 75.0 °F - 72.0 °F 90% 29.86 in 8.0 mi South 9.2 mph - 0.05 in Rain Light Rain
8:47 PM 75.0 °F - 72.0 °F 90% 29.86 in 10.0 mi South 9.2 mph - 0.05 in   Mostly Cloudy
8:54 PM 75.0 °F - 72.0 °F 90% 29.86 in 10.0 mi South 8.1 mph - 0.05 in   Mostly Cloudy
9:54 PM 73.0 °F - 71.1 °F 93% 29.86 in 10.0 mi South 3.5 mph - N/A   Mostly Cloudy
10:54 PM 73.0 °F - 71.1 °F 93% 29.86 in 10.0 mi SSE 3.5 mph - N/A   Overcast
11:41 PM 73.9 °F - 71.1 °F 91% 29.86 in 10.0 mi South 5.8 mph - N/A   Overcast
11:54 PM 73.9 °F - 71.1 °F 91% 29.85 in 10.0 mi South 6.9 mph - N/A   Overcast